#timestamp,LO_Frequency,Hit 
1500717615.5,286045678.6,N
1500717635.3,286045680.7,N
1500717655.2,286045678.6,N
1500717675.0,286045678.8,N
1500717675.9,286045678.8,N
1500717695.8,286045678.7,N
1500717715.6,286045678.6,N
1500717735.4,286045680.8,N
1500717755.3,286045679.8,N
1500717775.1,286045682.6,N
1500717795.8,286045682.1,N
1500717815.7,286045682.4,N
1500717835.5,286045655.1,N
1500717855.4,286045678.1,N
1500717875.2,286045680.4,N
1500717895.0,286045680.4,N
1500717896.0,286045680.4,N
1500717915.8,286045680.3,N
1500717935.6,286045680.0,N
1500717955.5,286045679.9,N
1500717975.3,286045679.9,N
1500717995.1,286045680.5,N
1500718015.9,286045682.4,N
1500718035.7,286045678.5,N
1500718055.6,286045678.6,N
1500718075.4,286045681.2,N
1500718095.2,286045680.8,N
1500718115.1,286045680.0,N
1500718116.0,286045680.0,N
1500718135.8,286045680.8,N
1500718155.6,286045679.8,N
1500718175.5,286045680.0,N
1500718195.3,286045682.3,N
1500718215.2,286045682.4,N
1500718235.9,286045681.0,N
1500718255.7,286045680.4,N
1500718275.6,286045678.1,N
1500718295.4,286045680.5,N
1500718315.3,286045678.1,N
1500718335.1,286045680.9,N
1500718336.0,286045680.9,N
1500718355.8,286045678.5,N
1500718375.7,286045680.0,N
1500718395.5,286045680.7,N
1500718415.3,286045680.3,N
1500718435.2,286045680.6,N
1500718455.0,286045680.3,N
1500718455.9,286045680.3,N
1500718475.8,286045680.9,N
1500718495.6,286045680.8,N
1500718515.4,286045678.1,N
1500718535.3,286045678.6,N
1500718555.1,286045681.0,N
1500718575.9,286045680.6,N
1500718595.7,286045680.7,N
1500718615.5,286045678.2,N
1500718635.4,286045678.5,N
1500718655.2,286045680.8,N
1500718675.0,286045678.2,N
1500718675.9,286045678.2,N
1500718695.8,286045680.7,N
1500718715.6,286045680.9,N
1500718735.5,286045680.6,N
1500718755.3,286045680.6,N
1500718775.1,286045679.9,N
1500718795.9,286045680.0,N
1500718815.7,286045680.8,N
1500718835.6,286045680.7,N
1500718855.4,286045681.0,N
1500718875.2,286045680.6,N
1500718895.1,286045681.1,N
1500718896.0,286045681.1,N
1500718915.8,286045681.1,N
1500718935.6,286045678.5,N
1500718955.5,286045680.7,N
1500718975.3,286045681.0,N
1500718995.2,286045680.8,N
1500719015.9,286045680.9,N
1500719035.7,286045680.0,N
1500719055.6,286045680.4,N
1500719075.4,286045681.0,N
1500719095.3,286045680.5,N
1500719115.1,286045682.8,N
1500719116.0,286045682.8,N
1500719135.8,286046194.8,N
1500719155.7,286045680.4,N
1500719175.5,286045679.7,N
1500719195.3,286045679.9,N
1500719215.2,286045681.0,N
1500719235.0,286045681.2,N
1500719235.9,286045681.2,N
1500719255.8,286045680.6,N
1500719275.6,286045680.0,N
1500719295.4,286045679.7,N
1500719315.3,286045680.0,N
1500719335.1,286045680.2,N
1500719355.9,286045678.2,N
1500719375.7,286045678.1,N
1500719395.5,286045678.3,N
1500719415.4,286045679.7,N
1500719435.2,286045680.7,N
1500719455.0,286045680.6,N
1500719456.0,286045680.6,N
1500719475.8,286045678.1,N
1500719495.6,286045678.4,N
1500719515.5,286045678.8,N
1500719535.3,286045679.4,N
1500719555.1,286045678.3,N
1500719575.9,286045678.6,N
1500719595.7,286045681.2,N
1500719615.6,286045679.2,N
1500719635.4,286045678.6,N
1500719655.2,286045678.3,N
1500719675.1,286045676.5,N
1500719676.0,286045676.5,N
1500719695.8,286045679.4,N
1500719715.7,286045677.0,N
1500719735.5,286045679.6,N
1500719755.3,286045677.4,N
1500719775.2,286045678.0,N
1500719795.0,286045677.8,N
1500719795.9,286045677.8,N
1500719815.7,286045677.4,N
1500719835.6,286045677.4,N
1500719855.4,286045677.8,N
1500719875.3,286045675.3,N
1500719895.1,286045675.4,N
1500719896.0,286045675.4,N
1500719915.8,286045678.0,N
1500719965.7,286045675.9,Y
1500719975.6,286046244.2,N
1500719995.5,286047001.0,N
1500720015.3,286047000.8,N
1500720035.1,286047001.1,N
1500720055.9,286047001.2,N
1500720075.7,286046998.5,N
1500720095.6,286046998.6,N
1500720115.4,286046998.7,N
1500720135.2,286046999.2,N
1500720155.1,286046997.2,N
1500720156.0,286046997.2,N
1500720175.8,286046999.4,N
1500720195.7,286046999.1,N
1500720215.5,286046998.4,N
1500720235.3,286046998.2,N
1500720255.2,286047001.2,N
1500720275.0,286046998.5,N
1500720275.9,286046998.5,N
1500720295.7,286046998.3,N
1500720315.6,286046999.6,N
1500720335.4,286046996.9,N
1500720355.3,286046997.0,N
1500720375.1,286046996.6,N
1500720395.8,286046997.1,N
1500720415.7,286046997.0,N
1500720435.5,286046996.9,N
1500720455.4,286046996.9,N
1500720475.2,286046996.5,N
1500720495.0,286046997.1,N
1500720495.9,286046997.1,N
1500720515.8,286046997.0,N
1500720535.6,286046995.3,N
1500720555.4,286046995.1,N
1500720575.3,286046995.8,N
1500720595.1,286046995.2,N
1500720615.9,286046995.6,N
1500720635.7,286046995.9,N
1500720655.5,286046995.1,N
1500720675.4,286046996.4,N
1500720695.2,286046995.9,N
1500720715.1,286046996.3,N
1500720716.0,286046996.3,N
1500720735.8,286046996.1,N
1500720755.6,286046997.6,N
1500720775.5,286046996.2,N
1500720795.3,286046995.2,N
1500720815.2,286046995.5,N
1500720835.9,286046995.3,N
1500720855.7,286046995.1,N
1500720875.6,286046995.7,N
1500720895.4,286046993.3,N
1500720915.2,286046993.4,N
1500720935.1,286046993.6,N
1500720936.0,286046993.6,N
1500720955.8,286046996.3,N
1500720975.7,286046994.0,N
1500720995.5,286046994.6,N
1500721015.3,286046991.9,N
1500721035.2,286046991.8,N
1500721055.0,286046994.6,N
1500721055.9,286046994.6,N
1500721075.8,286046994.4,N
1500721095.6,286046996.4,N
1500721115.4,286046993.4,N
1500721135.3,286046993.6,N
1500721155.1,286046994.8,N
1500721175.8,286046994.1,N
1500721195.7,286046994.3,N
